This is the latest recevied weather packets stored in our database for station/object WB3EGK. If no packets are shown the sender has not sent any weather packets the latest 10 day(s).
| Time | Temp. | Humidity | Pressure | Rain* | Wind** | Luminosity | Snow |
|---|---|---|---|---|---|---|---|
| 1777584257 | 8.89° C | 1% | 1010.9 hPa | 0 mm | - | 252 W/m² | - |
| 1777583951 | 8.89° C | 1% | 1011 hPa | 0 mm | - | 465 W/m² | - |
| 1777583647 | 8.89° C | 1% | 1010.7 hPa | 0 mm | - | 293 W/m² | - |
| 1777583346 | 8.33° C | 1% | 1010.8 hPa | 0 mm | - | 185 W/m² | - |
| 1777583041 | 8.33° C | 1% | 1010.7 hPa | 0 mm | - | 170 W/m² | - |
| 1777582737 | 8.33° C | 1% | 1010.9 hPa | 0 mm | - | 207 W/m² | - |
| 1777582433 | 8.33° C | 1% | 1010.8 hPa | 0 mm | - | 216 W/m² | - |
| 1777582127 | 7.78° C | 1% | 1010.9 hPa | 0 mm | - | 193 W/m² | - |
| 1777581821 | 7.78° C | 1% | 1010.7 hPa | 0 mm | - | 160 W/m² | - |
| 1777581519 | 7.78° C | 1% | 1010.9 hPa | 0 mm | - | 129 W/m² | - |
| 1777581215 | 7.78° C | 1% | 1010.8 hPa | 0 mm | - | 113 W/m² | - |
| 1777580909 | 7.78° C | 1% | 1010.9 hPa | 0 mm | - | 92 W/m² | - |
| 1777580604 | 7.78° C | 1% | 1010.9 hPa | 0 mm | - | 103 W/m² | - |
| 1777580300 | 7.78° C | 1% | 1010.9 hPa | 0 mm | - | 92 W/m² | - |
| 1777579997 | 7.78° C | 1% | 1010.6 hPa | 0 mm | - | 137 W/m² | - |
| 1777579692 | 7.78° C | 1% | 1010.7 hPa | 0 mm | - | 193 W/m² | - |
| 1777579391 | 7.78° C | 1% | 1011 hPa | 0 mm | - | 216 W/m² | - |
| 1777579087 | 7.78° C | 1% | 1010.7 hPa | 0 mm | - | 169 W/m² | - |
| 1777578786 | 7.78° C | 1% | 1010.7 hPa | 0 mm | - | 137 W/m² | - |
| 1777578482 | 7.78° C | 1% | 1010.7 hPa | 0 mm | - | 168 W/m² | - |
| 1777578177 | 7.78° C | 1% | 1010.7 hPa | 0 mm | - | 247 W/m² | - |
| 1777577873 | 7.78° C | 1% | 1010.8 hPa | 0 mm | - | 244 W/m² | - |
| 1777577569 | 7.22° C | 1% | 1010.8 hPa | 0 mm | - | 240 W/m² | - |
| 1777577266 | 7.22° C | 1% | 1010.8 hPa | 0 mm | - | 177 W/m² | - |
| 1777576961 | 6.67° C | 1% | 1010.8 hPa | 0 mm | - | 92 W/m² | - |
* Rain latest hour (hover to see other rain measurements)
** Current wind speed in m/s (hover to see current wind gust speed)